GFSSGP_850_spd_231.txt.gz
Wind_Speed
9 6 4 4 3 3 3 7 3 6 3 3 6 8 9 6 3 3 21 21 22 28 28 24 20 18 18 14 13 19 20 19 17 17 18 15 16 18 20 15 17 18 16 16 18 17 21 21 21
7 5 2 2 4 1 5 6 12 4 7 9 7 7 4 3 5 16 26 17 21 29 29 25 21 20 19 15 13 18 20 19 19 18 15 13 17 21 17 17 19 17 16 18 19 19 21 21 19
5 2 2 4 4 5 5 2 6 4 4 6 5 8 4 3 8 30 15 24 23 31 29 26 22 20 18 15 13 15 20 19 18 20 16 15 15 20 17 16 18 17 14 18 20 21 22 21 19
2 3 4 2 6 7 12 5 4 4 1 2 10 8 8 4 19 16 25 25 22 31 29 26 23 20 18 15 13 15 21 18 15 16 20 17 15 16 14 15 18 17 15 18 19 20 21 20 19
2 4 2 3 7 8 9 11 5 4 2 5 6 7 7 9 8 18 27 24 24 33 29 27 24 21 19 16 13 16 21 19 18 15 20 17 16 13 15 19 17 16 17 18 18 19 19 18 18
3 4 1 7 5 9 10 21 11 3 3 1 6 9 4 7 10 29 26 23 23 30 27 26 25 21 18 16 13 16 21 17 14 16 19 17 14 12 20 18 17 16 16 17 16 17 17 17 16
4 2 5 3 6 6 9 22 10 7 4 1 4 4 10 11 22 28 26 22 20 26 25 27 25 22 18 16 15 18 21 14 11 14 17 15 14 16 18 17 17 15 15 15 15 15 16 16 18
5 3 2 4 7 9 7 7 7 8 4 6 4 5 7 19 26 25 25 24 22 23 24 28 26 24 21 18 16 20 18 14 13 15 15 16 17 16 18 17 16 14 14 13 12 14 15 16 16
6 2 3 5 5 7 15 4 3 4 2 3 3 3 9 26 30 29 28 27 26 25 22 27 27 25 22 19 19 20 17 14 13 13 16 17 16 17 17 16 16 15 14 13 13 15 16 14 15
4 4 5 5 4 4 11 11 2 5 5 6 12 10 19 28 31 32 33 29 28 26 23 30 29 28 25 22 22 22 21 17 13 12 14 17 17 18 18 17 14 15 15 13 13 15 16 15 14
3 4 7 15 8 15 13 9 11 5 4 4 9 16 25 26 30 32 34 30 22 19 21 29 29 28 26 24 25 24 23 18 14 12 15 18 18 18 17 17 14 13 14 14 14 14 15 15 13
4 7 14 17 22 8 4 13 10 5 5 8 7 10 20 27 26 28 30 32 29 25 25 26 29 28 26 24 27 26 24 22 17 15 17 17 17 17 16 17 15 13 14 14 14 13 12 14 13
3 8 13 16 12 6 4 8 5 14 11 3 6 12 12 19 23 22 19 29 28 30 29 29 29 28 27 24 27 26 23 22 20 17 19 18 17 15 13 16 15 15 14 14 15 13 14 12 12
7 11 14 11 14 9 4 6 5 5 9 13 10 11 12 12 22 22 21 25 33 29 30 29 30 29 26 24 23 28 25 25 23 19 23 20 18 17 15 15 17 17 13 13 12 11 13 14 13
8 6 8 9 7 4 5 6 5 19 19 20 26 19 19 16 17 27 25 24 27 32 30 31 31 32 28 25 25 26 27 27 25 23 23 23 22 19 17 15 15 17 17 15 14 14 13 14 13
2 1 4 5 5 8 8 8 6 19 19 26 30 30 25 24 22 22 27 24 26 27 36 32 33 31 32 31 28 25 27 28 29 27 23 25 23 22 19 16 15 17 18 18 16 14 13 12 12
4 2 3 6 5 2 5 3 12 17 18 24 28 30 32 24 26 23 25 29 30 30 30 38 35 34 34 34 32 27 26 25 31 30 26 24 25 24 22 20 20 19 20 19 17 15 14 13 14
4 4 5 5 7 9 7 7 9 24 16 16 20 18 24 31 28 26 27 26 32 33 32 31 38 36 33 33 31 31 27 26 28 30 29 26 28 26 25 24 24 25 22 21 19 17 17 15 14
4 4 8 10 12 7 4 7 9 21 21 19 25 22 19 16 11 20 33 31 31 35 35 34 37 38 40 37 34 35 38 35 34 33 31 29 28 30 29 28 26 26 26 23 21 19 19 19 18
2 3 6 9 7 8 8 14 16 16 22 24 18 24 19 17 21 16 17 32 33 33 30 33 35 37 40 42 39 38 37 37 35 33 33 32 30 33 31 32 31 28 26 27 26 24 24 23 21
4 4 3 5 8 4 9 6 3 5 19 26 27 21 22 20 17 23 14 24 35 34 34 31 32 35 37 38 44 40 36 34 35 36 34 33 33 33 37 35 33 32 30 30 30 28 28 26 25
5 6 6 7 7 3 6 4 8 9 6 2 15 18 24 28 27 25 22 12 31 32 31 29 30 34 37 35 40 48 44 41 41 39 37 34 35 35 37 40 37 35 34 34 32 31 31 29 29
2 3 3 4 5 5 2 4 7 5 9 9 14 18 23 17 19 24 24 27 24 24 30 31 32 33 37 40 41 46 51 32 42 41 40 37 36 37 37 39 40 38 38 37 35 35 34 34 32
6 5 5 1 2 2 3 4 5 3 5 5 18 24 27 27 24 15 13 17 16 19 25 31 33 35 37 38 42 44 41 36 38 44 41 42 40 39 40 39 41 41 40 40 40 38 37 37 36
4 3 3 4 3 5 2 3 6 6 9 11 14 27 33 28 26 25 23 22 17 15 16 31 35 36 35 39 40 43 42 38 36 36 42 42 43 42 42 43 45 46 44 42 41 41 42 42 40
4 2 1 3 2 4 6 4 3 3 9 16 20 23 30 29 28 26 24 25 25 24 18 16 38 36 35 36 39 43 44 40 40 38 40 44 44 44 40 41 45 47 47 45 45 44 44 46 46
3 2 3 0 1 2 3 5 4 16 18 28 29 26 27 28 30 29 28 25 27 25 24 20 26 42 38 35 36 41 42 43 40 34 38 39 41 41 38 37 40 45 47 47 48 49 49 49 49
2 4 1 2 3 4 4 4 5 19 19 20 22 23 24 27 25 25 26 26 28 27 28 27 25 38 42 37 35 40 39 40 38 33 35 38 36 34 39 35 37 39 43 45 47 50 52 53 53
1 1 2 2 2 2 2 4 5 9 12 15 23 28 24 25 25 24 23 25 25 28 29 19 25 30 36 34 33 38 37 35 35 35 28 30 38 38 43 41 37 38 40 41 44 47 51 52 53
3 4 2 2 3 3 2 3 3 10 13 16 20 23 22 25 23 22 18 16 14 11 8 10 17 23 26 28 28 30 32 32 33 32 29 22 23 38 39 38 39 43 41 43 43 44 48 50 52

GFSSGP_850_spd_234.txt.gz
Wind_Speed
9 4 4 1 3 4 3 6 3 8 5 1 4 9 9 4 3 3 12 28 29 33 30 26 23 21 17 16 19 23 21 21 19 17 17 18 20 18 17 20 15 14 15 16 20 20 20 19 18
6 4 3 2 4 2 5 4 3 4 1 4 13 10 4 3 5 10 27 21 31 32 30 27 23 20 18 16 18 22 21 20 18 16 14 18 21 18 17 18 15 14 17 17 19 22 21 20 19
5 2 2 4 4 6 5 3 3 2 3 4 3 7 5 7 8 22 10 24 29 32 30 25 22 21 19 16 18 20 21 19 19 14 12 21 19 19 17 18 16 13 17 18 18 22 20 19 18
5 4 2 3 7 7 8 2 4 7 8 4 5 6 5 3 18 19 15 23 28 32 29 26 21 22 19 16 18 20 20 21 21 17 14 18 18 17 17 17 17 13 17 19 20 20 20 19 19
4 2 1 3 6 6 2 6 13 5 3 6 1 3 4 18 8 15 19 27 27 33 30 26 23 22 20 16 18 22 20 21 19 21 16 17 18 17 18 17 16 15 17 18 20 19 19 19 19
4 3 2 5 4 6 6 13 13 11 4 1 5 4 3 11 10 15 23 26 25 32 31 27 23 21 20 16 17 22 20 20 18 20 18 16 15 15 20 18 14 15 17 17 18 18 18 18 17
5 3 5 2 6 7 6 4 6 13 6 5 8 4 6 12 13 22 26 22 22 31 30 28 25 21 19 16 17 22 21 16 16 21 18 15 14 18 19 16 17 15 16 16 16 17 17 17 16
3 3 3 4 4 5 5 5 7 11 4 11 8 7 4 17 24 24 23 19 23 30 29 29 27 23 20 18 17 23 19 14 14 18 19 15 16 20 18 17 15 15 15 14 14 15 16 16 14
2 2 3 4 6 4 14 8 5 0 9 8 6 7 5 26 28 27 25 23 23 27 27 28 28 25 22 20 20 22 17 15 15 17 17 18 17 19 19 18 16 16 15 13 13 14 15 16 15
3 3 6 4 1 2 8 8 13 4 7 6 11 11 19 29 30 31 31 31 27 28 27 28 28 27 24 23 22 22 19 16 15 16 18 18 17 19 19 18 16 17 15 15 14 14 15 14 13
2 3 4 9 6 13 4 7 7 6 4 3 12 23 27 33 31 31 30 30 30 27 28 29 29 27 27 26 24 24 23 20 16 15 18 19 18 20 19 18 17 17 17 17 16 15 14 14 14
3 3 5 7 11 8 5 1 3 6 5 1 7 13 26 31 33 31 31 31 30 28 26 27 31 30 29 27 26 26 26 22 16 17 18 20 19 20 19 17 15 16 17 17 17 16 15 14 14
3 7 12 13 5 7 9 2 2 4 2 4 9 19 20 25 29 30 28 28 27 26 24 25 32 32 31 26 26 28 26 24 20 17 18 18 19 19 18 18 15 15 17 17 16 16 16 16 13
7 11 16 10 8 5 3 4 4 4 3 3 3 15 15 17 20 26 29 30 30 27 26 25 29 32 30 28 26 29 25 24 22 19 20 19 18 17 14 15 16 17 17 17 16 14 13 16 15
6 6 8 5 3 3 2 7 4 11 13 14 11 9 10 19 21 19 23 26 30 31 27 29 30 31 29 28 26 29 26 26 23 23 21 21 19 17 16 15 18 18 17 16 17 16 13 14 14
4 2 4 5 5 3 6 10 6 20 19 12 14 19 19 17 22 25 21 24 22 31 31 31 32 34 32 30 27 24 27 27 25 25 23 24 20 20 17 18 17 19 18 18 18 18 16 16 16
6 3 4 6 10 6 5 5 5 13 11 13 15 16 17 21 22 25 27 25 25 26 33 34 36 36 33 32 29 25 25 30 28 29 28 26 23 22 21 21 18 19 21 20 19 17 17 16 17
3 4 5 4 7 7 5 7 9 21 10 12 16 15 14 13 17 20 29 27 26 26 30 32 36 37 35 34 30 30 28 29 31 30 30 30 24 25 25 24 22 22 22 22 22 19 16 16 15
0 2 4 5 4 5 4 9 13 23 20 16 17 16 15 13 9 7 27 29 30 30 31 34 36 38 38 37 38 36 35 33 33 32 32 29 27 27 28 25 25 27 27 25 24 21 20 20 20
3 4 5 7 6 6 7 11 9 11 14 17 13 17 16 17 15 8 7 16 35 36 35 36 37 40 40 40 41 39 38 35 35 32 32 32 30 28 31 29 30 30 30 29 28 27 24 24 24
2 3 4 4 8 2 11 4 7 6 16 29 21 14 15 15 17 16 13 11 10 32 37 37 36 40 43 42 41 42 38 35 35 35 35 34 32 30 33 33 34 33 33 32 31 31 29 29 27
4 5 5 6 6 3 2 3 5 7 12 19 26 27 29 27 23 24 18 7 14 16 31 36 36 36 38 44 45 45 44 43 41 39 39 36 34 33 33 36 37 37 36 36 34 34 34 32 33
2 6 5 1 2 3 4 3 5 7 9 16 23 29 33 30 25 22 20 16 7 14 20 28 34 33 34 37 40 43 46 45 41 42 41 39 37 35 34 36 42 41 40 38 38 37 37 38 36
6 5 4 3 3 3 3 3 4 4 5 9 22 28 32 36 33 26 21 19 11 7 8 21 28 32 35 34 36 41 44 48 47 41 45 41 41 39 37 36 40 44 44 43 40 40 40 41 39
10 5 3 5 4 3 1 2 0 2 3 8 16 26 31 31 32 31 28 26 24 17 12 10 17 27 33 37 37 37 43 45 46 44 47 39 40 45 42 41 40 42 44 46 45 43 43 45 45
5 4 2 1 3 4 3 3 4 0 3 15 18 22 25 30 33 29 28 29 27 26 21 16 14 17 27 36 36 35 33 44 45 43 46 46 45 38 41 38 41 41 42 45 47 46 46 46 47
4 3 2 0 1 1 3 1 3 15 10 23 32 29 28 29 31 31 31 27 28 28 27 22 20 19 21 33 36 37 34 36 40 43 46 45 43 40 39 39 36 38 41 44 47 48 49 50 52
1 4 1 2 3 4 4 3 5 17 20 18 23 25 25 26 27 28 27 28 27 25 28 26 23 23 25 24 35 38 40 36 34 39 44 45 39 42 38 39 38 38 39 42 44 47 50 53 54
2 2 2 2 2 2 2 2 5 9 12 14 21 24 27 29 28 24 23 22 21 20 21 21 19 17 21 25 28 36 38 35 32 35 35 38 35 37 36 37 37 35 39 36 38 42 48 53 53
1 2 3 1 3 2 2 1 5 6 12 13 17 21 22 25 26 24 22 18 14 12 12 10 8 8 13 21 25 28 28 29 28 30 31 32 31 30 27 36 34 36 35 39 43 41 40 41 49

GFSSGP_850_spd_237.txt.gz
Wind_Speed
9 6 5 3 3 4 3 5 2 6 6 4 1 4 6 3 4 4 13 29 30 31 31 26 20 18 17 19 22 23 21 19 17 16 15 17 16 16 16 12 13 10 13 18 17 17 17 17 17
7 5 4 1 4 2 5 4 3 3 1 9 5 5 3 1 2 9 24 28 31 32 32 26 20 20 17 19 23 22 20 19 17 16 16 18 18 18 18 14 12 14 13 22 18 18 17 15 15
6 4 4 4 4 7 5 5 4 0 1 1 2 4 2 3 3 19 17 29 32 33 31 26 21 20 17 19 22 22 20 18 15 12 18 20 16 17 16 14 11 14 15 20 20 19 18 15 15
5 4 2 2 8 5 7 6 3 4 2 3 6 4 2 2 9 11 25 27 33 33 30 26 21 20 18 20 21 21 20 18 14 14 20 19 18 16 16 14 9 14 16 17 20 19 17 15 15
5 3 2 3 6 3 3 10 4 3 7 1 4 3 2 10 6 13 25 26 33 32 29 25 21 21 18 20 21 20 20 18 14 14 17 18 17 16 16 14 11 12 16 17 18 18 17 16 14
1 1 2 5 4 3 3 8 8 5 10 3 7 6 4 9 3 13 20 26 30 30 29 25 21 21 18 19 20 20 20 21 19 15 15 17 17 17 14 15 12 12 16 16 16 17 17 16 14
4 3 3 2 3 4 3 4 5 11 6 6 13 5 5 8 10 13 22 26 28 29 29 25 22 21 19 18 21 20 20 17 21 16 14 15 15 17 15 14 11 12 14 14 15 15 16 15 15
2 4 2 4 2 3 5 3 5 5 5 10 8 7 6 15 14 18 23 25 26 30 29 26 24 22 20 18 20 20 19 17 21 19 16 14 16 19 16 13 13 12 12 12 13 14 14 14 12
3 2 2 3 4 1 8 6 8 4 6 4 6 7 8 17 19 24 25 24 26 30 30 28 26 24 20 18 20 21 16 13 17 20 17 15 19 18 17 15 14 13 12 12 12 13 14 13 11
4 3 6 2 4 3 7 7 9 6 4 4 6 9 17 20 24 26 27 26 29 32 31 29 27 25 23 21 21 24 19 15 15 19 16 17 19 19 18 16 15 13 12 11 12 12 14 13 12
3 4 1 6 9 8 6 8 6 2 3 2 3 20 25 24 26 22 27 25 27 30 31 30 29 25 25 25 23 24 20 16 16 16 18 18 18 20 19 17 15 15 14 13 12 13 14 13 12
2 2 3 6 11 6 5 7 7 5 3 9 4 20 25 26 28 26 29 27 27 28 28 30 29 27 27 25 25 22 21 20 18 17 18 18 18 19 19 16 15 16 15 14 13 12 13 13 13
4 7 9 9 9 8 5 4 3 6 7 11 3 19 22 23 24 27 24 24 26 26 28 29 29 30 30 26 25 25 23 22 18 18 18 18 18 19 18 17 16 17 17 16 14 13 13 13 13
7 10 16 5 5 8 3 1 4 4 5 10 6 14 17 21 21 24 26 29 31 27 26 26 28 31 31 29 26 26 26 23 20 18 18 19 18 19 19 17 15 16 18 18 17 15 14 14 15
6 6 7 6 4 2 2 4 4 3 8 9 3 4 10 15 20 23 24 25 28 30 26 26 27 32 34 32 29 27 27 25 22 23 18 18 19 19 17 15 17 17 18 19 19 18 16 14 17
4 3 5 6 11 7 2 2 6 11 14 7 8 7 10 14 15 19 23 27 25 27 30 29 29 31 34 34 30 28 28 26 26 24 22 19 20 20 19 16 15 18 19 19 19 19 19 16 15
7 2 4 7 9 6 6 5 6 17 11 8 7 5 5 5 9 17 18 23 27 28 28 32 33 33 35 37 32 29 28 28 28 27 25 24 22 21 21 18 17 19 21 20 20 20 19 19 18
4 4 4 4 8 6 6 5 11 24 13 12 12 9 7 9 13 9 16 19 24 26 25 30 33 36 36 38 35 31 29 29 26 31 26 26 26 25 24 22 20 20 23 23 22 22 19 19 18
1 2 3 3 3 5 5 7 9 22 18 13 11 11 14 13 13 10 8 17 22 25 27 26 32 36 38 41 39 37 36 34 31 32 30 27 30 28 26 24 23 24 26 25 24 23 23 20 21
3 3 4 3 5 3 6 6 5 17 23 29 28 28 27 21 16 12 11 12 12 26 27 28 30 33 37 38 40 39 36 37 31 29 32 32 33 29 29 25 27 27 28 28 27 27 25 23 23
4 4 4 3 7 2 7 1 5 4 19 27 30 28 30 27 24 20 14 10 7 7 19 28 33 33 36 38 39 36 40 39 37 35 32 34 35 33 30 29 29 30 31 31 32 31 30 28 25
2 2 2 4 4 2 4 2 3 6 7 18 24 28 29 31 27 22 18 13 10 8 9 17 24 32 35 37 39 41 44 41 39 36 33 31 35 33 35 34 32 33 34 34 34 34 33 33 33
2 5 3 2 2 3 4 4 4 6 10 19 23 24 26 26 28 27 23 18 15 12 9 11 17 21 27 35 36 40 41 42 40 40 37 35 33 34 36 36 35 35 37 39 37 37 37 37 37
5 3 5 4 3 3 3 3 4 5 7 15 24 28 30 31 30 28 25 23 18 15 12 10 11 15 20 26 32 34 36 39 42 42 41 39 38 35 39 38 38 37 39 42 43 42 39 40 39
6 5 3 5 5 3 2 2 1 4 3 7 19 29 30 31 33 33 31 31 26 20 18 16 13 10 17 21 24 30 33 35 39 42 42 41 42 37 41 43 41 41 40 42 46 46 46 44 43
4 3 2 4 2 4 3 1 3 1 2 14 18 24 30 33 30 29 31 31 29 27 24 22 20 17 14 20 24 28 29 32 33 34 41 45 44 41 37 40 41 44 43 43 44 48 49 49 48
3 4 3 3 2 1 3 2 4 4 7 18 23 25 27 28 29 29 29 27 28 27 24 23 23 22 20 16 23 28 29 30 33 33 36 39 41 43 41 41 40 41 45 47 45 44 47 49 49
3 1 3 3 3 3 3 2 3 13 16 16 20 21 24 24 29 30 28 27 24 24 23 20 22 24 24 23 21 18 28 31 31 32 32 33 36 39 42 37 39 44 40 41 41 42 41 46 48
4 3 2 1 2 2 3 2 3 7 9 10 16 18 21 24 27 30 28 24 22 19 19 18 20 20 22 23 24 23 21 28 30 27 30 26 33 36 37 35 38 38 35 34 39 39 42 46 48
1 2 2 3 4 1 2 3 3 4 6 8 11 14 20 24 29 29 29 28 22 17 14 13 13 12 13 16 19 20 17 21 23 23 23 24 26 28 28 29 33 35 31 37 37 36 42 47 46

GFSSGP_850_spd_240.txt.gz
Wind_Speed
10 9 5 2 3 4 3 5 2 4 3 3 3 4 4 3 3 3 13 27 29 31 31 26 20 16 20 22 21 20 19 20 18 16 15 14 12 16 13 14 12 18 17 16 14 15 18 17 17
7 6 3 2 4 2 5 3 5 4 4 5 5 3 4 2 2 4 21 27 30 31 30 26 19 17 20 23 20 20 19 18 16 15 16 13 17 16 13 13 9 14 18 15 15 15 13 13 13
5 6 5 4 4 8 5 5 6 3 4 2 4 4 3 2 2 15 13 27 31 31 28 24 19 18 17 20 22 19 18 16 15 15 15 19 19 17 15 11 9 14 19 16 15 13 11 12 12
5 5 3 4 7 4 4 6 3 3 3 2 6 5 3 2 6 9 20 28 31 31 27 23 19 17 16 22 22 19 17 13 11 16 18 15 17 16 15 11 10 14 21 17 16 15 13 13 12
7 3 3 2 4 2 4 7 5 4 4 1 5 4 4 8 6 7 25 29 31 30 26 21 19 17 17 21 20 19 17 12 12 17 17 17 15 14 15 10 10 14 18 17 16 15 13 13 10
4 3 3 4 2 2 4 14 6 3 3 2 2 9 6 9 8 13 23 27 29 29 26 23 18 19 18 20 20 19 16 13 10 15 15 16 15 14 13 12 10 14 15 15 16 15 14 12 8
5 4 4 3 3 3 4 4 5 9 5 6 5 5 6 13 11 17 21 25 29 28 26 23 19 20 17 19 19 20 20 17 15 12 15 15 15 13 14 13 11 12 14 14 16 14 15 11 11
3 4 2 3 3 1 4 7 2 1 4 4 9 5 6 19 17 19 23 25 27 28 26 23 21 20 20 20 21 20 22 20 17 13 12 13 14 14 16 13 11 10 11 13 13 13 13 11 11
2 4 2 2 1 1 8 6 5 4 4 2 4 3 3 20 21 22 25 24 24 29 27 23 22 22 21 18 19 20 18 21 19 18 14 14 14 16 15 11 10 10 10 12 12 12 13 12 8
4 2 5 4 3 3 10 7 11 6 4 5 2 3 12 21 25 29 26 24 22 28 29 26 22 22 20 20 19 19 18 19 20 18 16 15 17 17 15 13 11 11 10 11 11 12 12 11 10
3 2 4 6 11 10 6 9 7 9 5 6 6 10 18 21 25 26 18 22 23 26 27 28 25 22 21 22 22 23 19 17 17 19 16 16 19 18 17 16 14 12 11 10 11 12 12 11 9
2 4 4 6 13 10 7 8 5 12 7 14 6 13 19 22 24 23 24 16 22 26 29 27 26 24 24 23 22 24 21 18 17 18 17 19 19 20 18 16 15 13 12 11 11 10 11 12 11
4 6 10 12 10 6 6 7 2 6 12 17 4 14 16 18 21 20 20 19 18 22 26 28 29 27 27 25 24 22 21 20 18 18 18 18 18 19 18 16 15 15 14 13 12 11 11 11 12
6 6 12 9 9 6 4 2 3 9 13 13 10 7 9 11 12 14 16 16 15 19 23 28 30 29 29 28 26 24 21 21 21 19 18 18 18 18 18 18 16 15 15 15 13 12 12 11 12
4 4 3 15 15 6 2 3 5 15 13 8 7 3 3 5 9 10 15 19 15 13 23 27 28 30 30 31 28 28 24 24 23 21 18 18 18 17 18 18 16 15 17 18 17 16 15 14 14
5 4 4 4 18 9 6 3 4 20 14 11 8 4 3 4 5 8 15 20 22 23 25 27 27 28 30 33 32 31 29 28 23 23 21 19 18 18 19 18 16 17 17 19 19 18 17 17 15
7 3 5 6 8 4 6 2 12 20 9 7 9 9 8 7 5 5 15 20 24 26 25 26 28 28 30 32 34 35 34 30 28 26 24 20 17 19 19 19 16 15 18 20 21 20 19 19 19
4 4 4 3 7 6 6 8 13 26 16 17 19 18 17 16 16 13 8 18 20 23 25 27 26 28 31 34 36 39 40 35 34 30 28 23 21 20 21 20 18 16 18 21 21 20 18 18 17
2 1 3 3 2 6 6 8 10 20 31 27 27 27 21 19 15 14 14 4 13 17 19 23 26 25 30 39 39 45 46 40 37 33 31 27 23 24 23 22 20 21 22 22 22 22 23 22 18
3 2 5 5 4 3 5 5 7 15 16 21 23 28 29 23 20 19 16 13 10 3 14 19 21 25 28 30 33 42 43 45 38 33 29 29 28 26 25 24 23 24 23 26 26 25 26 24 23
2 3 3 3 6 3 3 3 4 4 14 18 24 24 29 29 27 24 20 17 14 12 6 10 16 20 24 29 31 33 25 29 39 36 35 35 34 31 27 25 24 25 26 28 28 28 28 28 26
2 1 3 5 4 2 3 2 2 5 5 18 23 28 30 32 30 26 23 19 17 14 11 8 8 11 15 22 28 33 32 37 36 24 31 37 37 35 32 29 26 27 27 29 32 30 31 31 32
4 6 3 2 2 2 6 4 1 6 9 17 22 25 26 28 30 30 27 22 20 18 14 11 8 8 15 15 23 26 31 33 34 35 28 34 34 39 36 33 29 30 31 30 33 35 34 34 36
6 2 4 4 2 3 4 3 3 5 6 10 18 22 25 28 28 29 27 24 20 17 17 14 12 8 10 14 18 25 24 27 31 31 33 35 36 34 31 36 36 32 32 33 34 37 39 40 38
7 5 3 4 5 4 2 2 2 2 2 7 17 23 25 26 29 32 33 30 26 22 19 17 16 13 11 13 16 19 24 25 27 27 29 32 32 33 36 36 35 36 34 38 38 39 41 43 45
4 3 3 2 3 4 4 2 3 2 5 14 17 19 21 25 27 32 33 31 30 25 22 19 18 17 15 13 16 19 19 23 26 26 26 27 29 30 32 33 33 35 31 39 43 46 45 45 47
6 4 2 3 3 1 3 2 3 3 5 18 21 23 25 28 31 31 31 33 30 27 24 21 18 15 17 17 16 18 24 24 26 26 26 27 27 28 29 29 34 35 38 41 42 44 49 50 47
2 4 4 3 3 4 4 4 3 8 12 11 16 20 24 27 28 29 30 30 28 25 22 20 17 17 18 19 20 20 18 23 27 26 25 25 25 24 22 27 25 28 38 38 39 31 38 48 51
4 4 2 1 1 1 3 4 2 5 6 8 12 14 19 24 25 27 28 26 25 24 22 20 17 16 17 16 19 21 22 20 20 25 24 22 21 23 20 24 28 31 30 30 31 36 32 39 41
2 2 1 3 5 1 2 4 2 4 4 7 10 14 17 19 22 26 27 28 27 26 23 19 16 13 13 13 13 15 15 16 16 19 20 19 19 19 21 24 23 26 27 25 25 26 36 34 34

GFSSGP_850_spd_246.txt.gz
Wind_Speed
11 9 5 4 6 5 10 6 3 5 3 2 5 2 5 4 1 2 8 19 24 28 24 21 19 18 19 21 19 17 15 15 14 12 12 12 11 11 13 14 13 12 12 16 21 20 16 16 15
6 6 4 2 7 10 11 9 9 5 2 5 5 5 4 3 3 4 15 21 27 28 25 23 20 18 18 19 20 20 18 16 14 12 11 9 8 10 13 15 18 15 14 17 17 17 14 13 12
4 9 6 4 8 13 7 10 9 0 2 2 2 1 2 4 3 13 12 25 28 28 27 24 21 18 18 20 20 20 18 16 14 11 10 12 12 13 12 15 18 16 16 16 14 14 11 9 9
4 3 1 6 12 8 11 4 3 6 2 2 1 3 4 3 7 10 20 29 29 29 25 23 22 22 20 21 21 21 19 17 16 14 10 15 12 11 11 13 18 16 16 15 12 12 11 9 7
3 1 5 6 12 4 5 7 5 4 1 1 2 4 2 3 9 11 24 27 29 29 25 21 23 22 20 17 20 19 17 15 16 15 16 16 13 12 9 11 19 17 15 13 10 11 12 10 7
3 2 4 9 6 4 5 5 8 7 5 3 2 5 4 7 8 16 24 28 26 29 25 22 20 21 19 17 18 17 12 14 16 16 16 15 13 13 9 10 20 17 16 14 11 11 12 12 9
3 3 3 5 3 1 3 10 7 10 10 7 4 3 3 10 13 21 23 27 27 28 25 22 21 21 18 17 17 16 11 15 18 15 16 14 13 14 11 11 19 15 15 13 13 11 11 9 9
1 3 4 2 2 2 7 6 2 3 5 2 1 2 5 13 20 23 26 26 25 26 24 21 21 20 20 19 20 16 13 13 15 16 16 13 14 15 13 11 12 13 13 13 13 12 9 8 9
1 3 3 2 3 2 8 6 5 4 3 2 3 2 3 16 23 26 23 24 26 25 24 21 20 20 18 18 19 16 16 14 14 14 14 13 13 14 14 9 9 9 10 12 12 12 10 9 7
2 2 2 4 6 6 11 8 7 2 4 6 5 5 9 21 23 25 24 24 28 25 27 20 18 18 18 18 20 19 18 17 16 16 14 13 13 13 12 12 8 7 8 10 13 12 10 9 8
3 2 2 2 7 10 10 8 14 1 6 12 14 6 13 22 24 22 23 24 28 30 26 21 17 17 19 16 20 18 20 20 18 17 15 14 14 16 15 14 11 10 10 12 13 14 12 11 9
3 6 5 5 8 7 7 11 7 17 10 14 13 7 10 17 20 20 19 21 23 27 24 22 18 15 18 16 19 15 18 20 21 19 18 15 13 18 17 14 13 12 12 13 13 13 14 12 11
6 5 4 9 4 5 8 5 4 17 23 13 10 7 8 9 15 16 15 15 19 22 23 23 20 18 15 17 17 18 18 19 21 19 18 17 16 18 21 17 16 14 13 13 12 12 12 12 12
1 2 9 10 6 6 5 5 1 20 24 15 15 16 11 9 5 9 9 11 12 14 20 22 24 22 20 19 18 17 17 20 19 19 19 18 16 18 19 17 18 16 15 14 13 13 13 12 12
0 2 2 21 14 5 7 4 13 22 11 16 19 16 16 15 7 5 5 3 12 12 14 18 22 23 22 21 19 19 19 19 20 19 18 18 18 18 19 17 17 16 16 15 14 14 14 14 13
1 1 2 12 19 5 5 5 18 18 10 16 16 16 15 14 16 10 3 4 8 11 9 14 15 16 20 24 23 22 21 22 21 21 20 19 19 18 18 18 18 17 16 16 16 16 16 15 15
5 4 7 2 21 5 5 3 16 15 12 15 16 16 15 13 14 13 8 5 4 13 16 14 14 13 15 20 23 25 26 26 25 25 23 21 20 19 18 18 19 19 18 17 17 18 17 17 17
5 3 3 6 9 10 11 10 11 15 16 16 16 16 16 17 14 12 11 7 4 5 15 15 18 18 20 19 21 27 28 32 32 29 27 24 22 20 19 20 20 20 20 20 19 19 19 20 18
2 1 4 2 5 5 9 9 9 13 18 19 18 18 18 17 15 8 9 8 6 3 7 16 20 20 25 19 22 29 26 28 40 29 32 26 24 23 22 22 21 21 23 21 18 18 20 20 19
4 2 5 1 6 2 5 7 6 13 14 16 16 17 18 16 14 12 10 8 7 5 3 6 14 20 22 24 21 23 18 24 34 33 31 32 26 26 25 25 23 22 24 24 23 22 21 21 21
4 7 6 3 5 1 4 4 3 2 8 13 16 15 16 17 18 18 15 13 9 6 5 5 5 12 16 23 26 22 21 16 20 24 24 25 29 35 31 29 27 26 25 25 26 25 24 23 22
3 6 5 4 4 2 1 0 6 1 1 12 16 17 17 18 18 18 19 16 13 10 8 6 7 6 11 15 19 18 21 22 21 25 29 22 22 22 29 31 32 32 30 27 28 27 27 26 28
4 8 3 1 2 2 4 4 5 0 1 11 17 17 17 17 18 19 19 20 18 16 13 11 9 10 8 13 16 21 20 21 23 25 22 21 20 22 24 33 34 36 34 34 34 31 29 30 31
11 3 1 1 1 3 1 3 5 2 2 8 14 14 15 17 18 18 18 18 18 17 15 14 13 12 13 13 16 19 22 23 27 25 24 21 22 23 29 29 30 34 41 40 38 37 35 34 34
11 3 1 2 1 1 1 4 4 4 3 7 10 12 13 15 17 20 21 21 20 20 17 15 15 16 15 15 16 19 22 24 27 25 23 24 26 24 23 25 27 31 38 35 37 34 38 38 37
6 5 3 4 3 3 1 3 3 4 2 5 5 7 11 14 16 18 20 21 21 20 19 17 16 16 16 16 16 17 20 24 26 27 25 26 26 25 20 19 22 26 32 35 36 40 38 39 39
4 4 2 1 2 3 1 2 4 5 4 5 6 9 12 14 16 17 18 21 23 21 19 18 17 15 12 12 14 15 17 22 24 26 27 25 26 25 24 16 15 14 19 26 30 32 33 34 29
3 1 1 1 4 3 1 4 3 2 3 5 6 10 13 15 16 17 18 21 22 21 18 16 14 13 13 12 12 13 16 18 22 25 26 22 21 21 17 16 13 11 11 11 13 15 21 28 21
2 1 1 1 2 2 4 1 2 3 5 6 6 9 12 14 15 17 19 19 20 19 18 17 16 12 10 9 9 9 10 13 17 20 25 25 17 15 13 12 12 12 12 13 13 14 15 19 21
3 4 3 2 1 1 2 4 3 6 7 7 7 9 11 12 14 17 19 16 19 21 19 19 17 15 14 12 8 6 5 4 6 13 16 19 19 15 15 16 16 18 16 15 16 16 18 16 19